Location: Bottenau
(48.5138°N, 8.0462°E)
Time: 21:16:13
(UTC+00:00)

Cosmos 2026 Rocket - Pass Details

Date: 18 April 2021
Orbit: 939 x 1001 km, 82.9° (Epoch: 17 May)

Event Time Altitude Azimuth Distance (km) Brightness Sun altitude
Rises 19:40:25 0° 349° (N) 3,614 7.7 -12.3°
Reaches altitude 10° 19:42:54 10° 349° (N) 2,666 7.0 -12.6°
Maximum altitude 19:48:59 80° 264° (W) 963 4.0 -13.5°
Drops below altitude 10° 19:55:04 10° 178° (S) 2,670 5.9 -14.3°
Enters shadow 19:56:30 - 177° (S) 3,215 6.3 -14.5°
